1508364000.13,53348,15.06,73954.5,1.45,-26.77,-25.91,0,*7F
1508364001.41,53349,15.06,73954.5,1.43,-26.77,-25.97,0,*7E
1508364002.68,53350,15.06,73956.8,1.43,-26.65,-25.81,0,*72
1508364003.94,53351,15.06,73956.8,1.39,-26.81,-25.97,0,*73
1508364005.17,53352,15.06,73956.8,1.43,-26.61,-25.91,0,*75
1508364006.4,53353,15.06,73952.8,1.43,-26.49,-25.91,0,*7E
1508364007.64,53354,15.06,73950.3,1.43,-26.49,-25.65,0,*72
1508364008.89,53355,15.06,73952.3,1.43,-26.49,-25.81,0,*79
1508364010.12,53356,15.06,73962.8,1.43,-26.49,-25.91,0,*7B
1508364011.38,53357,15.06,73954.5,1.43,-26.61,-25.81,0,*71
1508364012.6,53358,15.06,73946.8,1.43,-26.61,-25.91,0,*7F
1508364013.84,53359,15.06,73946.3,1.39,-26.45,-25.71,0,*7B
1508364015.08,53360,15.06,73946.8,1.39,-26.49,-25.81,0,*72
1508364016.31,53361,15.06,73940.3,1.39,-26.49,-25.55,0,*7A
1508364017.58,53362,15.06,73938.0,1.39,-26.33,-25.55,0,*74
1508364018.79,53363,15.06,73942.5,1.39,-26.49,-25.65,0,*7B
1508364020.05,53364,15.06,73950.0,1.39,-26.55,-25.71,0,*74
1508364021.31,53365,15.06,73946.0,1.43,-26.65,-25.81,0,*74
1508364022.57,53366,15.06,73946.8,1.39,-26.55,-25.81,0,*79
1508364023.82,53367,15.06,73940.5,1.39,-26.13,-25.45,0,*72
1508364025.03,53368,15.06,73944.0,1.39,-26.03,-25.35,0,*7B
1508364026.29,53369,15.06,73948.5,1.39,-25.97,-25.29,0,*79
1508364027.52,53370,15.06,73944.3,1.39,-26.13,-25.35,0,*73
1508364028.75,53371,15.06,73940.8,1.39,-26.29,-24.97,0,*72
1508364030.01,53372,15.06,73940.8,1.39,-25.81,-25.03,0,*7C
1508364031.26,53373,15.06,73946.5,1.43,-25.81,-24.97,0,*7C
1508364032.49,53374,15.06,73944.8,1.39,-25.71,-24.97,0,*79
1508364033.72,53375,15.06,73948.0,1.39,-25.97,-25.35,0,*79
1508364035.0,53376,15.06,73940.5,1.43,-26.13,-25.45,0,*7F
1508364036.24,53377,15.06,73942.0,1.39,-26.29,-25.49,0,*76
1508364037.49,53378,15.06,73944.3,1.39,-26.33,-25.49,0,*72
1508364038.72,53379,15.06,73944.0,1.43,-26.45,-25.61,0,*75
1508364039.98,53380,15.06,73944.3,1.43,-26.61,-25.75,0,*70
1508364041.19,53381,15.06,73950.8,1.39,-26.65,-25.87,0,*75
1508364042.42,53382,15.06,73958.3,1.39,-26.71,-25.87,0,*73
1508364043.68,53383,15.06,73954.0,1.43,-26.49,-25.75,0,*79
1508364044.94,53384,15.06,73950.0,1.43,-26.13,-25.39,0,*79
1508364046.15,53385,15.06,73950.8,1.39,-26.45,-25.65,0,*7F
1508364047.39,53386,15.06,73940.0,1.43,-26.49,-25.49,0,*73
1508364048.62,53387,15.06,73942.3,1.39,-26.65,-25.81,0,*75
1508364049.88,53388,15.06,73936.5,1.39,-26.55,-25.71,0,*76
1508364051.16,53389,15.06,73940.8,1.37,-26.71,-25.81,0,*70
1508364052.44,53390,15.06,73954.8,1.37,-26.55,-25.71,0,*71
1508364053.7,53391,15.06,73960.0,1.39,-26.55,-25.71,0,*7E
1508364054.96,53392,15.06,73940.8,1.39,-26.33,-25.55,0,*7B
1508364056.2,53393,15.06,73958.8,1.39,-26.45,-25.55,0,*7B
1508364057.44,53394,15.06,73928.8,1.39,-26.33,-25.49,0,*70
1508364058.7,53395,15.06,73924.8,1.39,-26.55,-25.29,0,*77
1508364059.95,53396,15.06,73914.8,1.37,-26.29,-25.35,0,*7C
1508364061.16,53397,15.06,73914.5,1.39,-26.45,-25.65,0,*7C
1508364062.42,53398,15.06,73924.0,1.39,-26.29,-25.55,0,*7A
1508364063.63,53399,15.06,73930.3,1.39,-26.45,-25.65,0,*72
1508364064.89,53400,15.06,73928.3,1.39,-26.55,-25.71,0,*71
1508364066.15,53401,15.06,73926.0,1.43,-26.49,-25.75,0,*74
1508364067.41,53402,15.06,73930.5,1.39,-26.55,-25.71,0,*73
1508364068.64,53403,15.06,73930.5,1.43,-26.45,-25.65,0,*7B
1508364069.88,53404,15.06,73930.0,1.39,-26.49,-25.81,0,*77
1508364071.13,53405,15.06,73924.0,1.39,-26.29,-25.45,0,*78
1508364072.37,53406,15.06,73930.3,1.39,-26.17,-25.49,0,*7A
1508364073.59,53407,15.06,73934.0,1.39,-26.49,-25.65,0,*7E
1508364074.82,53408,15.06,73926.5,1.39,-26.49,-25.71,0,*74
1508364076.08,53409,15.06,73932.3,1.39,-26.55,-25.71,0,*78
1508364077.31,53410,15.06,73930.0,1.39,-26.55,-25.87,0,*79
1508364078.55,53411,15.06,73936.0,1.43,-26.49,-25.65,0,*74
1508364079.78,53412,15.06,73942.3,1.43,-26.65,-25.91,0,*72
1508364080.99,53413,15.06,73936.3,1.39,-26.87,-26.03,0,*7A
1508364082.24,53414,15.06,73930.0,1.39,-26.71,-26.13,0,*75
1508364083.48,53415,15.06,73920.8,1.39,-26.81,-26.03,0,*7A
1508364084.71,53416,15.06,73920.0,1.39,-26.55,-25.87,0,*7F
1508364085.93,53417,15.06,73922.5,1.39,-26.65,-26.03,0,*72
1508364087.18,53418,15.06,73924.0,1.37,-26.71,-26.03,0,*76
1508364088.45,53419,15.06,73918.8,1.39,-26.81,-25.97,0,*78
1508364089.68,53420,15.06,73924.8,1.39,-26.55,-26.03,0,*75
1508364090.94,53421,15.06,73930.3,1.39,-26.71,-26.13,0,*73
1508364092.22,53422,15.06,73932.0,1.37,-26.97,-26.29,0,*7F
1508364093.48,53423,15.06,73938.3,1.39,-26.81,-26.29,0,*77
1508364094.73,53424,15.06,73938.0,1.37,-26.87,-26.29,0,*78
1508364095.99,53425,15.06,73942.3,1.37,-26.97,-26.45,0,*72
1508364097.21,53426,15.06,73946.0,1.37,-26.87,-26.45,0,*70
1508364098.43,53427,15.06,73952.3,1.37,-26.87,-26.45,0,*71
1508364099.65,53428,15.06,73948.5,1.37,-27.03,-26.49,0,*7F
1508364100.9,53429,15.06,73946.5,1.37,-27.13,-26.55,0,*72
1508364102.15,53430,15.06,73950.5,1.37,-27.13,-26.55,0,*7A
1508364103.35,53431,15.06,73944.8,1.35,-27.07,-26.61,0,*7B
1508364104.57,53432,15.06,73946.3,1.37,-27.03,-26.49,0,*74
1508364105.78,53433,15.06,73944.5,1.35,-27.03,-26.39,0,*70
1508364106.97,53434,15.06,73948.8,1.35,-27.03,-26.49,0,*70
1508364108.17,53435,15.06,73944.0,1.35,-27.03,-26.49,0,*71
1508364109.37,53436,15.06,73944.5,1.35,-27.03,-26.39,0,*75
1508364110.57,53437,15.06,73946.8,1.35,-27.03,-26.49,0,*73
1508364111.82,53438,15.06,73950.0,1.33,-26.97,-26.45,0,*7A
1508364113.05,53439,15.06,73950.3,1.35,-26.61,-26.17,0,*73
1508364114.27,53440,15.06,73948.5,1.35,-26.87,-26.33,0,*73
1508364115.55,53441,15.06,73952.8,1.33,-26.97,-26.55,0,*75
1508364116.8,53442,15.06,73950.0,1.33,-26.39,-25.81,0,*78
1508364118.06,53443,15.06,73958.5,1.33,-26.45,-25.97,0,*75
1508364119.28,53444,15.06,73954.5,1.33,-26.61,-26.07,0,*7E
1508364120.52,53445,15.06,73952.0,1.33,-26.65,-26.07,0,*7B
1508364121.74,53446,15.06,73948.5,1.33,-26.61,-26.07,0,*7C
1508364123.0,53447,15.06,73952.5,1.33,-26.65,-26.13,0,*7C
1508364124.26,53448,15.06,73958.3,1.33,-26.93,-26.39,0,*72
1508364125.52,53449,15.06,73956.3,1.31,-26.97,-26.55,0,*7F
1508364126.77,53450,15.06,73956.5,1.33,-26.81,-26.45,0,*73
1508364128.02,53451,15.06,73958.5,1.33,-26.81,-26.45,0,*72
1508364129.3,53452,15.06,73956.5,1.33,-26.93,-26.55,0,*73
1508364130.53,53453,15.06,73958.5,1.31,-26.93,-26.45,0,*71
1508364131.78,53454,15.06,73958.3,1.33,-26.77,-26.23,0,*7E
1508364133.03,53455,15.06,73948.0,1.33,-26.93,-26.45,0,*75
1508364134.32,53456,15.06,73952.8,1.33,-26.81,-26.29,0,*7F
1508364135.57,53457,15.06,73946.8,1.33,-26.77,-26.23,0,*7D
1508364136.82,53458,15.06,73946.0,1.33,-26.77,-26.23,0,*72
1508364138.05,53459,15.06,73952.5,1.31,-26.61,-26.13,0,*75
1508364139.26,53460,15.06,73950.8,1.31,-26.65,-26.23,0,*78
1508364140.53,53461,15.06,73948.8,1.29,-26.71,-26.17,0,*72
1508364141.76,53462,15.06,73944.3,1.31,-26.61,-25.97,0,*72
1508364142.97,53463,15.06,73952.5,1.31,-26.61,-26.07,0,*79
1508364144.2,53464,15.06,73956.3,1.31,-26.77,-26.23,0,*7F
1508364145.46,53465,15.06,73950.5,1.31,-26.81,-26.29,0,*7D
1508364146.69,53466,15.06,73946.3,1.33,-26.65,-26.07,0,*7A
1508364147.9,53467,15.06,73944.0,1.31,-26.45,-25.91,0,*77
1508364149.15,53468,15.06,73944.0,1.33,-26.45,-25.97,0,*7C
1508364150.4,53469,15.06,73944.0,1.33,-26.39,-25.81,0,*71
1508364151.65,53470,15.06,73940.5,1.33,-26.39,-25.81,0,*79
1508364152.93,53471,15.06,73940.5,1.33,-26.29,-25.75,0,*72
1508364154.19,53472,15.06,73936.3,1.33,-26.29,-25.65,0,*70
1508364155.47,53473,15.06,73934.3,1.33,-26.29,-25.75,0,*70
1508364156.72,53474,15.06,73930.8,1.33,-26.39,-25.81,0,*7D
1508364157.95,53475,15.06,73930.5,1.33,-26.23,-25.65,0,*7D
1508364159.18,53476,15.06,73930.5,1.31,-26.29,-25.65,0,*76
1508364160.41,53477,15.06,73924.8,1.35,-26.17,-25.61,0,*7A
1508364161.67,53478,15.06,73922.5,1.35,-26.17,-25.55,0,*72
1508364162.91,53479,15.06,73920.0,1.35,-26.03,-25.55,0,*76
1508364164.14,53480,15.06,73916.8,1.35,-26.17,-25.35,0,*73
1508364165.4,53481,15.06,73912.3,1.37,-26.03,-25.29,0,*78
1508364166.66,53482,15.06,73914.5,1.37,-26.03,-25.29,0,*7B
1508364167.89,53483,15.06,73916.5,1.35,-26.17,-25.39,0,*7C
1508364169.14,53484,15.06,73932.3,1.37,-26.03,-25.45,0,*77
1508364170.41,53485,15.06,73914.8,1.37,-25.97,-25.49,0,*74
1508364171.63,53486,15.06,73926.0,1.37,-25.65,-24.97,0,*78
1508364172.86,53487,15.06,73914.0,1.39,-25.65,-25.03,0,*7B
1508364174.12,53488,15.06,73908.3,1.43,-25.49,-24.83,0,*7E
1508364175.32,53489,15.06,73924.0,1.39,-25.87,-25.19,0,*72
1508364176.56,53490,15.06,73922.3,1.39,-25.97,-25.49,0,*7E
1508364177.81,53491,15.06,73924.8,1.39,-25.81,-25.45,0,*74
1508364179.06,53492,15.06,73920.8,1.45,-25.97,-25.49,0,*77
1508364180.29,53493,15.06,73924.5,1.43,-25.91,-25.39,0,*71
1508364181.51,53494,15.06,73926.8,1.45,-25.91,-25.29,0,*71
1508364182.72,53495,15.06,73930.0,1.45,-25.49,-24.93,0,*75
1508364183.92,53496,15.06,73928.0,1.45,-25.91,-24.97,0,*77
1508364185.18,53497,15.06,73930.8,1.47,-25.71,-24.93,0,*7E
1508364186.43,53498,15.06,73928.8,1.47,-25.45,-24.77,0,*7C
1508364187.68,53499,15.06,73930.0,1.47,-25.45,-24.77,0,*7D
1508364188.91,53500,15.06,73934.5,1.49,-25.55,-24.77,0,*73
1508364190.14,53501,15.06,73936.5,1.51,-25.65,-24.97,0,*76
1508364191.38,53502,15.06,73936.3,1.51,-26.03,-25.49,0,*74
1508364192.64,53503,15.06,73944.8,1.51,-26.17,-25.65,0,*7E
1508364193.93,53504,15.06,73950.3,1.51,-26.17,-25.71,0,*7C
1508364195.16,53505,15.06,73948.3,1.49,-26.23,-25.55,0,*75
1508364196.43,53506,15.06,73952.5,1.49,-26.33,-25.71,0,*71
1508364197.63,53507,15.06,73954.8,1.49,-26.39,-25.91,0,*74
1508364198.89,53508,15.06,73956.3,1.49,-26.33,-25.75,0,*7B
1508364200.1,53509,15.06,73964.8,1.49,-26.07,-25.61,0,*78
1508364201.3,53510,15.06,73960.0,1.49,-26.39,-25.87,0,*75
1508364202.56,53511,15.06,73966.8,1.47,-26.33,-25.87,0,*70
1508364203.83,53512,15.06,73958.5,1.49,-26.33,-25.75,0,*70
1508364205.03,53513,15.06,73958.3,1.49,-26.23,-25.61,0,*75
1508364206.32,53514,15.06,73952.3,1.47,-26.33,-25.71,0,*7C
1508364207.59,53515,15.06,73954.8,1.47,-26.17,-25.61,0,*7A
1508364208.85,53516,15.06,73956.3,1.47,-26.03,-25.45,0,*7A
1508364210.09,53517,15.06,73954.5,1.47,-26.03,-25.39,0,*70
1508364211.32,53518,15.06,73942.8,1.47,-25.87,-25.23,0,*7B
1508364212.55,53519,15.06,73934.0,1.47,-25.87,-25.35,0,*7D
1508364213.75,53520,15.06,73928.8,1.49,-25.87,-25.19,0,*77
1508364215.01,53521,15.06,73928.0,1.49,-25.55,-24.87,0,*7F
1508364216.22,53522,15.06,73930.0,1.49,-25.61,-25.09,0,*7C
1508364217.45,53523,15.06,73934.3,1.49,-25.71,-25.09,0,*7C
1508364218.71,53524,15.06,73938.3,1.51,-25.97,-25.39,0,*79
1508364219.95,53525,15.06,73944.8,1.49,-26.33,-25.61,0,*71
1508364221.24,53526,15.06,73946.5,1.51,-26.13,-25.71,0,*78
1508364222.51,53527,15.06,73942.3,1.51,-26.03,-25.55,0,*7E
1508364223.71,53528,15.06,73938.3,1.49,-25.87,-25.35,0,*71
1508364224.91,53529,15.06,73942.5,1.49,-25.87,-25.19,0,*7E
1508364226.17,53530,15.06,73940.0,1.51,-25.71,-25.19,0,*76
1508364227.42,53531,15.06,73944.8,1.51,-25.81,-25.19,0,*78
1508364228.63,53532,15.06,73942.8,1.49,-25.87,-25.35,0,*7A
1508364229.83,53533,15.06,73942.0,1.49,-25.87,-25.35,0,*7B
1508364231.06,53534,15.06,73938.8,1.49,-25.75,-25.09,0,*7E
1508364232.3,53535,15.06,73940.0,1.49,-25.71,-25.09,0,*7B
1508364233.53,53536,15.06,73940.5,1.51,-26.03,-25.35,0,*78
1508364234.79,53537,15.06,73932.5,1.51,-25.97,-25.35,0,*77
1508364236.07,53538,15.06,73932.3,1.51,-25.97,-25.29,0,*75
1508364237.29,53539,15.06,73932.8,1.49,-26.03,-25.39,0,*72
1508364238.51,53540,15.06,73936.3,1.51,-25.87,-25.19,0,*78
1508364239.74,53541,15.06,73930.3,1.51,-25.87,-25.19,0,*79
1508364241.02,53542,15.06,73936.0,1.51,-25.81,-25.29,0,*7F
1508364242.28,53543,15.06,73934.5,1.51,-25.71,-25.19,0,*72
1508364243.54,53544,15.06,73938.5,1.51,-25.87,-25.29,0,*7F
1508364244.79,53545,15.06,73940.3,1.51,-25.81,-25.19,0,*7B
1508364245.99,53546,15.06,73944.3,1.49,-25.91,-25.39,0,*72
1508364247.28,53547,15.06,73940.3,1.51,-25.55,-24.83,0,*72
1508364248.53,53548,15.06,73936.8,1.51,-25.39,-24.87,0,*73
1508364249.73,53549,15.06,73938.5,1.53,-25.61,-24.93,0,*78
1508364250.93,53550,15.06,73942.0,1.53,-25.49,-24.97,0,*7E
1508364252.16,53551,15.06,73938.0,1.53,-25.81,-25.09,0,*7D
1508364253.37,53552,15.06,73942.5,1.53,-25.65,-25.13,0,*7F
1508364254.6,53553,15.06,73936.3,1.53,-25.97,-25.23,0,*70
1508364255.85,53554,15.06,73942.0,1.53,-25.97,-25.29,0,*7D
1508364257.09,53555,15.06,73942.5,1.53,-26.13,-25.61,0,*7F
1508364258.32,53556,15.06,73936.3,1.53,-26.29,-25.61,0,*75
1508364259.56,53557,15.06,73938.5,1.53,-26.29,-25.49,0,*7E
1508364260.79,53558,15.06,73950.0,1.53,-26.29,-25.61,0,*7B
1508364262.06,53559,15.06,73948.0,1.53,-26.33,-25.75,0,*74
1508364263.3,53560,15.06,73940.0,1.53,-26.33,-25.65,0,*7F
1508364264.59,53561,15.06,73936.8,1.51,-26.33,-25.71,0,*79
1508364265.85,53562,15.06,73940.8,1.51,-26.39,-25.71,0,*70
1508364267.05,53563,15.0,73940.0,1.49,-26.45,-25.87,0,*7A
1508364268.28,53564,15.06,73946.0,1.49,-26.45,-25.75,0,*70
1508364269.52,53565,15.06,73954.3,1.49,-26.39,-25.75,0,*7A
1508364270.74,53566,15.06,73946.0,1.49,-26.23,-25.55,0,*70
1508364271.95,53567,15.06,73940.3,1.49,-26.39,-25.61,0,*7D
1508364273.19,53568,15.06,73946.0,1.49,-26.45,-25.71,0,*78
1508364274.45,53569,15.06,73940.5,1.49,-26.33,-25.45,0,*7F
1508364275.74,53570,15.06,73940.3,1.47,-26.33,-25.55,0,*78
1508364277.0,53571,15.06,73938.3,1.47,-26.39,-25.75,0,*71
1508364278.21,53572,15.06,73930.5,1.49,-26.45,-25.61,0,*72
1508364279.47,53573,15.06,73934.0,1.49,-26.33,-25.55,0,*75
1508364280.7,53574,15.06,73934.8,1.49,-26.39,-25.45,0,*79
1508364281.93,53575,15.0,73928.8,1.49,-26.39,-25.55,0,*79
1508364283.19,53576,15.06,73928.0,1.49,-26.55,-25.75,0,*72
1508364284.44,53577,15.06,73928.3,1.49,-26.55,-25.71,0,*77
1508364285.73,53578,15.06,73928.5,1.47,-26.55,-25.71,0,*76
1508364286.94,53579,15.06,73928.0,1.45,-26.45,-25.65,0,*71
1508364288.19,53580,15.06,73930.8,1.47,-26.39,-25.45,0,*7C
1508364289.48,53581,15.06,73932.3,1.47,-26.33,-25.55,0,*76
1508364290.75,53582,15.06,73928.8,1.47,-26.39,-25.55,0,*7F
1508364291.98,53583,15.06,73936.3,1.45,-26.29,-25.61,0,*7A
1508364293.27,53584,15.06,73942.3,1.47,-26.33,-25.45,0,*72
1508364294.53,53585,15.06,73938.3,1.47,-26.39,-25.55,0,*78
1508364295.78,53586,15.06,73936.3,1.47,-26.23,-25.45,0,*71
1508364297.0,53587,15.06,73934.3,1.45,-26.23,-25.45,0,*72
1508364298.23,53588,15.0,73928.5,1.47,-26.23,-25.39,0,*74
1508364299.46,53589,15.06,73932.0,1.47,-26.07,-25.35,0,*7F
1508364300.7,53590,15.06,73932.0,1.47,-26.07,-25.39,0,*7B
1508364301.94,53591,15.0,73928.8,1.47,-26.03,-25.39,0,*7E
1508364303.14,53592,15.0,73932.0,1.49,-25.91,-25.23,0,*70
1508364304.36,53593,15.06,73932.8,1.47,-25.91,-25.35,0,*78
1508364305.59,53594,15.06,73932.0,1.47,-25.91,-25.35,0,*7F
1508364306.82,53595,15.06,73940.0,1.47,-25.87,-25.19,0,*77
1508364308.05,53596,15.0,73938.8,1.47,-25.91,-25.23,0,*7A
1508364309.28,53597,15.0,73944.8,1.47,-25.91,-25.23,0,*7B
1508364310.49,53598,15.06,73938.8,1.49,-26.03,-25.39,0,*79
1508364311.73,53599,15.06,73932.0,1.47,-26.03,-25.35,0,*7A
1508364312.96,53600,15.0,73928.0,1.47,-25.87,-25.19,0,*78
1508364314.21,53601,15.06,73942.0,1.47,-25.75,-25.19,0,*74
1508364315.47,53602,15.06,73944.3,1.47,-25.75,-25.19,0,*77
1508364316.72,53603,15.06,73958.0,1.47,-25.75,-25.19,0,*76
1508364317.95,53604,15.06,73956.0,1.49,-25.71,-25.19,0,*7B
1508364319.2,53605,15.0,73938.5,1.49,-25.45,-24.87,0,*7B
1508364320.46,53606,15.06,73936.3,1.47,-25.55,-24.93,0,*72
1508364321.66,53607,15.06,73936.3,1.49,-25.61,-24.93,0,*7A
1508364322.91,53608,15.06,73938.3,1.49,-25.55,-25.03,0,*7A
1508364324.14,53609,15.0,73930.0,1.49,-25.19,-24.41,0,*74
1508364325.38,53610,15.06,73930.0,1.51,-25.19,-24.67,0,*71
1508364326.61,53611,15.06,73930.3,1.49,-25.55,-24.93,0,*7A
1508364327.84,53612,15.06,73952.3,1.49,-25.55,-24.93,0,*79
1508364329.09,53613,15.0,73942.8,1.51,-25.65,-25.03,0,*7A
1508364330.33,53614,15.06,73938.0,1.49,-25.71,-25.09,0,*7B
1508364331.56,53615,15.06,73934.5,1.49,-25.75,-25.09,0,*7E
1508364332.77,53616,15.06,73932.3,1.49,-25.87,-25.19,0,*71
1508364333.99,53617,15.0,73942.0,1.49,-25.75,-25.19,0,*7D
1508364335.23,53618,15.06,73942.3,1.49,-25.75,-25.09,0,*73
1508364336.43,53619,15.06,73932.3,1.49,-25.87,-25.19,0,*7E
1508364337.66,53620,15.06,73924.5,1.51,-25.87,-25.13,0,*77
1508364338.94,53621,15.0,73914.0,1.51,-25.81,-25.03,0,*71
1508364340.19,53622,15.06,73910.0,1.51,-25.81,-24.97,0,*7E
1508364341.44,53623,15.0,73916.8,1.49,-25.75,-24.87,0,*7C
1508364342.73,53624,15.0,73930.0,1.51,-25.71,-24.87,0,*76
1508364343.96,53625,15.06,73944.5,1.51,-25.87,-25.19,0,*78
1508364345.24,53626,15.06,73952.3,1.51,-25.97,-25.29,0,*79
1508364346.47,53627,15.0,73946.5,1.53,-25.97,-25.13,0,*73
1508364347.7,53628,15.06,73944.8,1.53,-25.49,-24.83,0,*77
1508364348.98,53629,15.0,73938.5,1.51,-25.71,-24.83,0,*7F
1508364350.27,53630,15.0,73932.0,1.51,-25.71,-25.03,0,*7E
1508364351.47,53631,15.0,73916.5,1.53,-25.49,-24.51,0,*70
1508364352.68,53632,15.0,73920.8,1.53,-25.49,-24.61,0,*70
1508364353.91,53633,15.0,73924.0,1.53,-25.81,-25.09,0,*7A
1508364355.11,53634,15.06,73928.5,1.53,-25.91,-25.23,0,*74
1508364356.37,53635,15.0,73950.8,1.53,-25.97,-25.29,0,*79
1508364357.6,53636,15.06,73932.3,1.53,-26.13,-25.09,0,*77
1508364358.8,53637,15.0,73924.0,1.53,-25.65,-24.93,0,*76
1508364360.02,53638,15.0,73932.5,1.53,-25.91,-25.29,0,*72
1508364361.24,53639,15.0,73932.5,1.53,-26.23,-25.45,0,*73
1508364362.47,53640,15.0,73932.0,1.53,-26.23,-25.45,0,*7D
1508364363.73,53641,15.0,73936.8,1.51,-26.17,-25.39,0,*72
1508364364.95,53642,15.06,73950.5,1.53,-26.23,-25.45,0,*7F
1508364366.21,53643,15.06,73950.8,1.51,-26.29,-25.49,0,*7A
1508364367.48,53644,15.0,73950.3,1.51,-26.33,-25.49,0,*76
1508364368.73,53645,15.0,73950.5,1.51,-26.29,-25.39,0,*7B
1508364369.99,53646,15.0,73950.8,1.51,-26.39,-25.55,0,*73
1508364371.23,53647,15.0,73948.5,1.49,-26.39,-25.55,0,*7B
1508364372.49,53648,15.0,73940.0,1.51,-26.33,-25.39,0,*7D
1508364373.75,53649,15.0,73940.5,1.49,-26.33,-25.45,0,*7E
1508364374.96,53650,15.0,73956.8,1.49,-26.45,-25.61,0,*71
1508364376.21,53651,15.06,73952.5,1.49,-26.55,-25.71,0,*70
1508364377.44,53652,15.06,73946.0,1.49,-26.55,-25.61,0,*72
1508364378.68,53653,15.06,73946.0,1.49,-26.45,-25.55,0,*75
1508364379.91,53654,15.0,73946.8,1.49,-26.45,-25.55,0,*72
1508364381.17,53655,15.06,73952.5,1.49,-26.55,-25.71,0,*74
1508364382.42,53656,15.0,73950.3,1.49,-26.55,-25.71,0,*77
1508364383.68,53657,15.0,73950.0,1.47,-26.61,-25.71,0,*7F
1508364384.94,53658,15.0,73954.3,1.45,-26.71,-25.71,0,*73
1508364386.2,53659,15.0,73958.8,1.47,-26.55,-25.61,0,*77
1508364387.46,53660,15.06,73960.0,1.47,-26.61,-25.75,0,*7F
1508364388.7,53661,15.0,73956.3,1.45,-26.65,-25.81,0,*73
1508364389.96,53662,15.0,73958.5,1.47,-26.61,-25.71,0,*79
1508364391.2,53663,15.0,73960.0,1.45,-26.65,-25.81,0,*71
1508364392.43,53664,15.0,73960.3,1.45,-26.65,-25.81,0,*76
1508364393.7,53665,15.0,73960.3,1.47,-26.61,-25.75,0,*7A
1508364394.94,53666,15.0,73962.0,1.45,-26.65,-25.75,0,*7F
1508364396.17,53667,15.06,73962.5,1.45,-26.61,-25.75,0,*7A
1508364397.41,53668,15.06,73960.5,1.45,-26.49,-25.75,0,*7F
1508364398.67,53669,15.0,73960.5,1.43,-26.77,-25.91,0,*7F
1508364399.93,53670,15.0,73962.5,1.43,-26.65,-25.81,0,*75
1508364401.2,53671,15.0,73960.0,1.43,-26.65,-25.75,0,*7F
1508364402.46,53672,15.06,73964.0,1.43,-26.61,-25.75,0,*78
1508364403.72,53673,15.06,73968.8,1.39,-26.71,-25.71,0,*71
1508364404.95,53674,15.0,73964.5,1.43,-26.61,-25.65,0,*7F
1508364406.21,53675,15.0,73960.0,1.39,-26.55,-25.71,0,*71
1508364407.45,53676,15.0,73962.3,1.43,-26.49,-25.65,0,*77
1508364408.68,53677,15.06,73968.3,1.39,-26.65,-25.81,0,*7F
1508364409.94,53678,15.0,73960.3,1.39,-26.71,-25.71,0,*7A
1508364411.17,53679,15.0,73964.5,1.39,-26.71,-25.87,0,*72
1508364412.44,53680,15.0,73964.8,1.39,-26.81,-25.71,0,*72
1508364413.67,53681,15.0,73966.5,1.39,-26.71,-25.65,0,*79
1508364414.95,53682,15.0,73968.3,1.37,-26.81,-25.81,0,*71
1508364416.21,53683,15.0,73968.3,1.37,-26.65,-25.71,0,*75
1508364417.49,53684,15.0,73966.3,1.37,-26.55,-25.71,0,*71
1508364418.77,53685,15.0,73960.8,1.37,-26.55,-25.71,0,*70
1508364420.04,53686,15.0,73966.5,1.37,-26.65,-25.71,0,*70
1508364421.26,53687,15.0,73964.5,1.35,-26.71,-25.87,0,*7F
1508364422.54,53688,15.0,73964.8,1.37,-26.71,-25.71,0,*7B
1508364423.8,53689,15.0,73966.0,1.35,-26.77,-25.75,0,*7A
1508364425.06,53690,15.0,73966.0,1.35,-26.77,-25.75,0,*72
1508364426.28,53691,15.0,73966.5,1.35,-26.55,-25.61,0,*76
1508364427.55,53692,15.0,73964.3,1.35,-26.33,-25.55,0,*72
1508364428.83,53693,15.0,73960.0,1.37,-26.33,-25.45,0,*70
1508364430.04,53694,15.0,73962.3,1.35,-26.39,-25.49,0,*73
1508364431.29,53695,15.0,73970.8,1.37,-26.45,-25.55,0,*76
1508364432.55,53696,15.0,73970.0,1.35,-26.33,-25.55,0,*76
1508364433.81,53697,15.0,73970.3,1.35,-26.55,-25.71,0,*71
1508364435.01,53698,15.0,73968.3,1.35,-26.61,-25.61,0,*78
1508364436.27,53699,15.0,73972.3,1.37,-26.49,-25.55,0,*76
1508364437.5,53700,15.0,73970.3,1.35,-26.49,-25.55,0,*75
1508364438.74,53701,15.0,73964.3,1.35,-26.49,-25.55,0,*74
1508364439.97,53702,15.0,73966.0,1.35,-26.49,-25.55,0,*77
1508364441.18,53703,15.0,73964.8,1.35,-26.39,-25.49,0,*7C
1508364442.37,53704,15.0,73964.3,1.35,-26.23,-25.35,0,*7B
1508364443.6,53705,15.0,73964.5,1.35,-26.17,-25.19,0,*73
1508364444.83,53706,15.0,73962.0,1.35,-26.17,-25.23,0,*79
1508364446.08,53707,15.0,73964.5,1.37,-26.13,-25.13,0,*7D
1508364447.33,53708,15.0,73960.8,1.37,-26.17,-25.35,0,*72
1508364448.59,53709,15.0,73962.3,1.37,-26.17,-25.35,0,*73
1508364449.78,53710,15.0,73956.3,1.35,-26.23,-25.23,0,*79
1508364451.04,53711,15.0,73960.3,1.37,-26.17,-25.23,0,*7D
1508364452.32,53712,15.0,73962.8,1.37,-26.17,-25.29,0,*74
1508364453.54,53713,15.0,73960.0,1.35,-26.17,-25.19,0,*74
1508364454.78,53714,15.0,73962.0,1.37,-26.03,-24.97,0,*73
1508364456.01,53715,15.0,73952.5,1.37,-26.03,-24.97,0,*72
1508364457.28,53716,15.0,73954.3,1.37,-25.97,-24.83,0,*7A
1508364458.54,53717,15.0,73954.5,1.37,-25.87,-24.71,0,*77
1508364459.79,53718,15.0,73956.8,1.39,-25.81,-24.83,0,*7D
1508364461.02,53719,15.0,73958.0,1.39,-25.97,-24.97,0,*7E
1508364462.28,53720,15.0,73960.5,1.43,-25.97,-24.61,0,*70
1508364463.52,53721,15.0,73956.3,1.39,-26.03,-25.03,0,*77
1508364464.74,53722,15.0,73956.0,1.43,-25.91,-24.97,0,*7D
1508364466.02,53723,15.0,73956.0,1.43,-25.97,-24.83,0,*7F
1508364467.3,53724,15.0,73958.0,1.43,-25.97,-24.83,0,*78
1508364468.54,53725,15.0,73962.0,1.39,-26.17,-25.19,0,*7D
1508364469.8,53726,15.0,73966.3,1.43,-26.29,-25.13,0,*74
1508364471.05,53727,15.0,73964.0,1.43,-26.29,-25.23,0,*76
1508364472.25,53728,15.0,73962.8,1.45,-26.23,-25.23,0,*75
1508364473.5,53729,15.0,73952.5,1.39,-26.13,-25.03,0,*7E
1508364474.74,53730,15.0,73952.5,1.43,-26.07,-25.09,0,*74
1508364475.97,53731,15.0,73954.3,1.39,-26.13,-25.13,0,*76
1508364477.21,53732,15.0,73956.3,1.39,-26.17,-25.19,0,*7B
1508364478.44,53733,15.0,73956.3,1.43,-26.07,-25.13,0,*7C
1508364479.67,53734,15.0,73954.5,1.43,-26.07,-25.09,0,*70
1508364480.9,53735,15.0,73946.8,1.43,-25.91,-24.93,0,*7F
1508364482.13,53736,15.0,73946.8,1.39,-26.13,-25.13,0,*71
1508364483.38,53737,15.0,73944.3,1.43,-26.13,-25.23,0,*7E
1508364484.62,53738,15.0,73946.3,1.43,-26.39,-25.39,0,*72
1508364485.85,53739,15.0,73948.0,1.43,-26.39,-25.39,0,*73
1508364487.11,53740,15.0,73952.5,1.43,-26.29,-25.39,0,*7C
1508364488.34,53741,15.0,73958.0,1.39,-26.29,-25.35,0,*7C
1508364489.58,53742,15.0,73956.3,1.39,-26.33,-25.35,0,*74
1508364490.78,53743,15.0,73946.0,1.39,-26.45,-25.35,0,*74
1508364492.01,53744,15.0,73942.0,1.39,-26.45,-25.45,0,*74
1508364493.27,53745,15.0,73942.5,1.39,-26.33,-25.29,0,*7E
1508364494.53,53746,15.0,73946.8,1.43,-26.39,-25.29,0,*7A
1508364495.74,53747,15.0,73938.8,1.39,-26.39,-25.23,0,*7C
1508364497.02,53748,15.0,73938.8,1.43,-26.29,-25.29,0,*75
1508364498.24,53749,15.0,73944.5,1.43,-26.23,-25.23,0,*74
1508364499.47,53750,15.0,73934.3,1.39,-26.17,-25.19,0,*7F
1508364500.73,53751,15.0,73934.5,1.39,-26.17,-25.03,0,*75
1508364501.96,53752,15.0,73926.5,1.39,-26.13,-25.19,0,*79
1508364503.22,53753,15.0,73934.8,1.43,-26.29,-25.23,0,*75
1508364504.48,53754,15.0,73936.0,1.43,-26.39,-25.29,0,*79
1508364505.68,53755,15.0,73936.8,1.39,-26.39,-25.23,0,*7F
1508364506.91,53756,15.0,73932.0,1.43,-26.23,-25.09,0,*72